date,time,DOY,Ta_1_1_1,RH_1_1_1,LWin_1_1_1,LWout_1_1_1,SWin_1_1_1,SWout_1_1_1,PPFD_1_1_1,SWC_1_1_1,Ts_1_1_1
[yyyy-mm-dd],[HH:MM],[ddd.ddd],[K],[%],[W+1m-2],[W+1m-2],[W+1m-2],[W+1m-2],[µmol+1m-2s-1],[m+3m-3],[K]
2013-01-18,00:30,18.020,255.32366666666664,74.896999999999991,-7.1230000000000002,-9999.0,0.63666666666666660,-3.2170000000000005,9.00000000000000105E-003,-9999.0,279.90999999999991
2013-01-18,01:00,18.041,255.32766666666669,74.638666666666680,-6.9256666666666664,-9999.0,0.50066666666666670,-2.9726666666666670,5.33333333333333316E-003,-9999.0,279.90999999999991
2013-01-18,01:30,18.062,255.34700000000001,74.693999999999988,-7.2783333333333333,-9999.0,0.56599999999999995,-2.9419999999999993,6.00000000000000099E-003,-9999.0,279.90999999999991
2013-01-18,02:00,18.083,255.35299999999998,74.113000000000014,-7.3069999999999995,-9999.0,0.27833333333333338,-2.5683333333333334,6.33333333333333404E-003,-9999.0,279.90999999999991
2013-01-18,02:30,18.104,254.57433333333336,76.468333333333334,-3.9743333333333339,-9999.0,-0.20266666666666672,-1.3426666666666667,6.33333333333333231E-003,-9999.0,279.90999999999991
2013-01-18,03:00,18.124,254.58399999999997,77.065333333333356,-2.9599999999999991,-9999.0,-0.17699999999999999,-0.89900000000000013,2.33333333333333353E-003,-9999.0,279.90999999999991
2013-01-18,03:30,18.145,254.89933333333335,77.265000000000001,-2.7719999999999998,-9999.0,-0.17533333333333340,-0.67766666666666664,1.13333333333333359E-002,-9999.0,279.90999999999991
2013-01-18,04:00,18.166,255.35299999999998,76.848666666666674,-2.9699999999999998,-9.3144444444444456,-0.19566666666666674,-0.62900000000000000,1.10000000000000028E-002,-9999.0,279.90999999999991
2013-01-18,04:30,18.187,255.82833333333340,76.387333333333331,-3.5546666666666664,-6.1466666666666665,-0.16000000000000006,-0.84966666666666635,-1.33333333333333264E-003,-9999.0,279.90999999999991
2013-01-18,05:00,18.208,256.17300000000006,76.336000000000013,-2.9486666666666670,-1.6446666666666663,-0.38999999999999990,-0.25766666666666671,6.66666666666666623E-003,-9999.0,279.90999999999991
2013-01-18,05:30,18.229,256.38566666666662,76.120666666666665,-2.4140000000000006,2.3000000000000003,-0.45166666666666672,-9.90000000000000185E-002,1.00000000000000019E-002,-9999.0,279.90999999999991
2013-01-18,06:00,18.249,256.55400000000014,76.914000000000001,-2.3149999999999995,-0.34166666666666662,-0.37266666666666659,-0.20100000000000001,1.16666666666666672E-002,-9999.0,279.90999999999991
2013-01-18,06:30,18.270,256.72300000000001,79.324666666666673,-2.3699999999999997,-0.87199999999999989,-0.27333333333333337,-0.16633333333333336,9.00000000000000105E-003,-9999.0,279.90999999999991
2013-01-18,07:00,18.291,257.28199999999993,80.330666666666673,-2.9023333333333330,-3.0189999999999997,-0.18200000000000005,-0.18033333333333335,4.33333333333333313E-003,-9999.0,279.90999999999991
2013-01-18,07:30,18.312,257.66833333333335,80.632333333333307,-3.1450000000000009,-2.2443333333333331,-0.22866666666666668,1.09999999999999872E-002,0.54633333333333334,-9999.0,279.90999999999991
2013-01-18,08:00,18.333,257.92399999999998,80.603000000000009,-2.8923333333333336,-0.34400000000000014,0.41899999999999998,2.9863333333333326,7.3510000000000000,-9999.0,279.90999999999991
2013-01-18,08:30,18.354,258.26099999999997,80.327999999999989,-2.7726666666666664,2.0369999999999999,1.7170000000000003,9.0629999999999988,19.782666666666671,-9999.0,279.90999999999991
2013-01-18,09:00,18.374,258.60466666666667,80.209333333333362,-2.9650000000000003,0.69033333333333324,3.4499999999999997,17.009333333333334,37.980666666666664,-9999.0,279.90999999999991
2013-01-18,09:30,18.395,258.95700000000005,80.893333333333331,-3.4759999999999991,-1.7646666666666668,6.4503333333333348,29.251999999999999,66.207333333333338,-9999.0,279.90999999999991
2013-01-18,10:00,18.416,259.29500000000002,81.437333333333342,-3.7283333333333331,-3.6259999999999994,12.673333333333328,55.745333333333328,121.61533333333333,-9999.0,279.90999999999991
2013-01-18,10:30,18.437,259.69366666666673,81.751333333333335,-3.9886666666666657,-5.4326666666666670,13.741000000000005,59.105000000000018,131.55400000000000,-9999.0,279.90999999999991
2013-01-18,11:00,18.458,260.09766666666667,82.696999999999989,-4.3466666666666658,-5.7019999999999991,16.717666666666673,69.019333333333336,154.71366666666665,-9999.0,279.90999999999991
2013-01-18,11:30,18.479,260.59800000000001,83.154000000000011,-4.4173333333333327,-4.6850000000000005,19.757666666666669,81.233333333333348,181.45533333333333,-9999.0,279.90999999999991
2013-01-18,12:00,18.499,261.09033333333338,83.346666666666636,-4.0119999999999996,-3.7056666666666667,20.561333333333327,85.850666666666640,191.84733333333330,-9999.0,279.90999999999991
2013-01-18,12:30,18.520,261.60433333333339,83.442999999999984,-4.6770000000000005,-6.1200000000000010,17.791333333333334,76.631666666666661,173.92033333333333,-9999.0,279.90999999999991
2013-01-18,13:00,18.541,262.26966666666669,84.186000000000007,-4.2796666666666665,-5.1866666666666683,26.680666666666660,114.61800000000001,245.74833333333333,-9999.0,279.90999999999991
2013-01-18,13:30,18.562,263.05100000000004,84.537000000000020,-4.6796666666666669,-5.4213333333333340,22.114000000000008,96.832000000000008,209.73333333333341,-9999.0,279.90999999999991
2013-01-18,14:00,18.583,263.62099999999992,85.382999999999981,-5.0133333333333345,-5.7549999999999999,15.440666666666667,68.402666666666661,150.46566666666664,-9999.0,279.90999999999991
2013-01-18,14:30,18.604,263.98333333333335,86.001333333333321,-4.9070000000000009,-4.0120000000000013,15.681000000000001,69.931999999999988,150.21000000000004,-9999.0,279.90999999999991
2013-01-18,15:00,18.624,264.42033333333330,86.626333333333335,-4.5513333333333339,-2.6923333333333326,14.888333333333334,66.355999999999995,139.98166666666665,-9999.0,279.90999999999991
2013-01-18,15:30,18.645,264.78033333333343,87.204999999999970,-4.7393333333333336,-3.2956666666666670,11.122000000000003,50.542666666666669,104.66833333333332,-9999.0,279.90999999999991
2013-01-18,16:00,18.666,265.07433333333336,87.785666666666614,-5.0229999999999988,-3.5093333333333327,5.5906666666666673,26.397666666666666,54.807333333333332,-9999.0,279.90999999999991
2013-01-18,16:30,18.687,265.29066666666671,88.332333333333338,-5.8853333333333318,-3.0593333333333335,1.0233333333333334,7.0270000000000019,15.675000000000004,-9999.0,279.90999999999991
2013-01-18,17:00,18.708,265.43666666666672,89.031333333333336,-5.7466666666666670,-2.4043333333333328,-0.25333333333333330,1.4396666666666669,3.3909999999999991,-9999.0,279.90999999999991
2013-01-18,17:30,18.729,265.64699999999999,89.214333333333343,-6.2489999999999988,-2.2223333333333333,-0.71599999999999997,-0.32666666666666661,5.06666666666666793E-002,-9999.0,279.90999999999991
2013-01-18,18:00,18.749,265.67733333333337,89.680333333333309,-6.2553333333333345,-1.4409999999999996,-0.81199999999999994,-0.35266666666666668,8.33333333333333322E-003,-9999.0,279.90999999999991
2013-01-18,18:30,18.770,265.69933333333330,90.306333333333342,-6.2416666666666654,-1.7309999999999994,-0.79733333333333334,-0.37900000000000011,8.00000000000000017E-003,-9999.0,279.90999999999991
2013-01-18,19:00,18.791,265.68733333333336,90.898000000000039,-6.0726666666666658,-1.0649999999999999,-0.81299999999999994,-0.31900000000000001,1.36666666666666655E-002,-9999.0,279.90999999999991
2013-01-18,19:30,18.812,265.84199999999998,90.357000000000028,-6.0249999999999995,-4.06666666666666565E-002,-0.78566666666666640,-0.22500000000000003,1.33333333333333325E-002,-9999.0,279.90999999999991
2013-01-18,20:00,18.833,265.96866666666659,90.144999999999996,-6.7469999999999990,-0.90700000000000003,-0.94899999999999995,-0.42433333333333334,5.66666666666666707E-003,-9999.0,279.90999999999991
2013-01-18,20:30,18.854,266.01466666666670,90.678333333333342,-7.3329999999999984,-2.5373333333333337,-1.1136666666666666,-0.65599999999999992,7.33333333333333493E-003,-9999.0,279.90999999999991
2013-01-18,21:00,18.874,266.07766666666669,91.305000000000007,-8.5973333333333333,-7.5606666666666662,-1.3593333333333335,-1.1546666666666670,9.33333333333333411E-003,-9999.0,279.90999999999991
2013-01-18,21:30,18.895,266.11233333333331,91.703333333333333,-8.4236666666666657,-5.9373333333333322,-1.3583333333333334,-1.0639999999999998,8.33333333333333495E-003,-9999.0,279.90999999999991
2013-01-18,22:00,18.916,266.12700000000001,92.254333333333335,-6.9236666666666649,-5.7900000000000018,-1.0399999999999998,-0.79266666666666685,5.00000000000000010E-003,-9999.0,279.90999999999991
2013-01-18,22:30,18.937,265.85000000000002,92.871000000000009,-6.3500000000000005,-8.1110000000000007,-0.92466666666666653,-0.91633333333333333,7.00000000000000101E-003,-9999.0,279.90999999999991
2013-01-18,23:00,18.958,265.50666666666666,92.278666666666666,-6.2763333333333318,-7.2532000000000014,-0.88000000000000012,-0.88199999999999990,6.00000000000000012E-003,-9999.0,279.90999999999991
2013-01-18,23:30,18.979,265.35800000000006,91.647000000000020,-6.9573333333333345,-8.8495833333333334,-0.95899999999999996,-1.0283333333333335,8.66666666666666800E-003,-9999.0,279.90999999999991
2013-01-19,00:00,19.000,265.27966666666674,91.254666666666665,-6.5936666666666657,-9.0407999999999991,-0.86466666666666669,-1.0013333333333336,1.16666666666666689E-002,-9999.0,279.90999999999991
